sat.trackr.live / text

‹ back to catalog

COSMOS 2529 (757)

NORAD 43687 · 2018-086A

PAYLOAD ACTIVE UNKNOWN

§ Identity

Operator
Country
CIS
Launch date
2018-11-03
Launch site
PLMSC
Launch vehicle
Mass (kg)
RCS (m²)

Purposes: nav

External: N2YO · Heavens-Above · Gunter

§ Orbital elements

Epoch: 2026-09-19T23:18:56.685888Z

Period
675.73 min
Inclination
64.2958°
Eccentricity
0.0010258
Mean motion
2.13102042 rev/d
Perigee alt
19,103.7 km
Apogee alt
19,156.1 km
Semi-major
25,508.0 km
B*
0.0000e+0
RAAN
189.3960°
Arg perigee
254.5016°
Mean anomaly
105.3970°
Rev number
6,130

§ Raw data

COSMOS 2529 (757)1 43687U 18086A   26262.97148942 -.00000012  00000+0  00000+0 0  99952 43687  64.2958 189.3960 0010258 254.5016 105.3970  2.13102042 61309

JSON: /api/v1/satellites/43687 · /tle

For live sub-satellite position, see the globe view (requires WebGL).

§ Visibility from observer

Set your observer location to see the next 7 days of passes ≥ 10°. The values pass through the URL so the page stays shareable.

No JS? Fill the form by hand. The geolocation button needs JavaScript.